Language: 


Des rapports , des résumés tant et plus, au choix de chacun....


Données statistiques de la station
Quotidien Rapport Janvier 11, 2018 Unités:  Métrique    Anglais   les deux
« Précédent Jour
Suivant Jour »
Quotidien Hebdomadaire Mensuel Annuel Actuel
  Haut: Bas: Moyen:
Température: -17.8 °C -16.5 °C -15.3 °C
Pt de rosée: -17.8 °C -16.1 °C -15.2 °C
Humidité: Humidity % 98 % 97 %
Vitesse du vent: 0 km/h 0 km/h 0.6 km/h
Rafales: 0 km/h - -
Vent:- - WSW
Pression: 0 hPa 34130.9 hPa -
Précipitation: 7.62 mm    
Historical Graphs
 
 
Données statistiques pour Janvier 11, 2018
Heure Température Point de rosée Pression Vent Vitesse du vent Refales Humidité Pluie (taux horaire)
-17.8 °C -17.8 °C 0 hPa Calm     Humidity % 0 mm
01:02 -16.3 °C -16.1 °C 34164.7 hPa Calm     98 % 0 mm
01:10 -16.3 °C -16.1 °C 34164.7 hPa Calm     98 % 0 mm
01:16 -16.2 °C -16.1 °C 34164.7 hPa Calm   4.2 km/h 98 % 0 mm
01:24 -16.2 °C -16.1 °C 34164.7 hPa Calm   4.2 km/h 98 % 0 mm
01:31 -16.1 °C -16.1 °C 34164.7 hPa Calm     98 % 0 mm
01:36 -16.1 °C -16.1 °C 34164.7 hPa Calm     98 % 0 mm
01:41 -15.9 °C -16.1 °C 34164.7 hPa Calm     98 % 0 mm
01:46 -15.9 °C -16.1 °C 34164.7 hPa Calm     98 % 0 mm
01:53 -15.9 °C -16.1 °C 34164.7 hPa Calm     98 % 0 mm
02:01 -16.1 °C -16.1 °C 34164.7 hPa Calm     98 % 0 mm
02:06 -16.2 °C -16.1 °C 34164.7 hPa Calm     98 % 0 mm
02:19 -16.3 °C -16.1 °C 34130.9 hPa Calm     98 % 0 mm
02:32 -16.4 °C -16.1 °C 34164.7 hPa Calm     98 % 0 mm
02:45 -16.4 °C -16.1 °C 34164.7 hPa Calm     98 % 0 mm
02:59 -16.5 °C -16.1 °C 34164.7 hPa Calm     98 % 0 mm
03:10 -16.5 °C -16.1 °C 34164.7 hPa Calm     98 % 0 mm
03:25 -16.3 °C -16.1 °C 34164.7 hPa NNE 15.6 km/h 15.6 km/h 98 % 0 mm
03:36 -16.1 °C -16.1 °C 34198.6 hPa NNE 10.3 km/h 12.7 km/h 98 % 0 mm
03:47 -15.9 °C -16.1 °C 34198.6 hPa North 2.3 km/h 9.8 km/h 98 % 0 mm
03:57 -15.9 °C -16.1 °C 34198.6 hPa Calm   6.9 km/h 98 % 0 mm
04:12 -15.9 °C -16.1 °C 34198.6 hPa Calm     98 % 0 mm
04:21 -15.9 °C -16.1 °C 34198.6 hPa Calm     98 % 0 mm
04:38 -15.9 °C -16.1 °C 34198.6 hPa Calm     98 % 0 mm
04:46 -15.8 °C -15.6 °C 34198.6 hPa Calm     98 % 0 mm
04:59 -15.6 °C -15.6 °C 34198.6 hPa Calm     98 % 0 mm
05:06 -15.4 °C -15.6 °C 34198.6 hPa Calm     98 % 0 mm
05:11 -15.3 °C -15.6 °C 34198.6 hPa Calm     98 % 0 mm
05:16 -15.3 °C -15.6 °C 34198.6 hPa Calm     98 % 0 mm
05:26 -15.2 °C -15 °C 34235.8 hPa Calm   11.1 km/h 98 % 0 mm
05:41 -15.3 °C -15 °C 34235.8 hPa Calm     98 % 0 mm
05:46 -15.3 °C -15 °C 34235.8 hPa Calm     98 % 0 mm
06:00 -15.3 °C -15.6 °C 34235.8 hPa Calm   2.3 km/h 98 % 0 mm
06:07 -15.3 °C -15.6 °C 34235.8 hPa Calm   2.3 km/h 98 % 0 mm
06:30 -15.4 °C -15.6 °C 34198.6 hPa Calm   7.6 km/h 98 % 0 mm
06:36 -15.4 °C -15.6 °C 34198.6 hPa Calm     98 % 0 mm
06:41 -15.4 °C -15.6 °C 34235.8 hPa Calm     98 % 0 mm
06:46 -15.4 °C -15.6 °C 34235.8 hPa Calm     98 % 0 mm
07:02 -15.4 °C -15.6 °C 34235.8 hPa Calm     98 % 0 mm
07:13 -15.4 °C -15.6 °C 34269.7 hPa Calm     98 % 0 mm
07:18 -15.4 °C -15.6 °C 34269.7 hPa Calm     98 % 0 mm
07:27 -15.4 °C -15.6 °C 34269.7 hPa Calm     98 % 0 mm
07:40 -15.3 °C -15.6 °C 34303.6 hPa Calm     98 % 0 mm
07:46 -15.3 °C -15.6 °C 34303.6 hPa Calm     98 % 0 mm
07:51 -15.3 °C -15.6 °C 34303.6 hPa Calm     98 % 0 mm
08:03 -15.3 °C -15.6 °C 34303.6 hPa Calm     98 % 0 mm
08:19 -15.3 °C -15.6 °C 34269.7 hPa Calm     98 % 0 mm
08:29 -15.3 °C -15.6 °C 34303.6 hPa Calm   2.3 km/h 98 % 0 mm
08:36 -15.3 °C -15.6 °C 34303.6 hPa Calm     98 % 0 mm
08:42 -15.3 °C -15 °C 34303.6 hPa Calm   5.1 km/h 98 % 0 mm
09:00 -15.2 °C -15 °C 34337.4 hPa Calm     98 % 0 mm
09:07 -15.2 °C -15 °C 34337.4 hPa Calm   2.3 km/h 98 % 0 mm
09:14 -15.2 °C -15 °C 34337.4 hPa Calm   4.2 km/h 98 % 0 mm
09:24 -15.2 °C -15 °C 34337.4 hPa Calm     98 % 0 mm
09:29 -15.2 °C -15 °C 34337.4 hPa Calm   5.1 km/h 98 % 0 mm
09:39 -15.1 °C -15 °C 34337.4 hPa Calm   3.4 km/h 98 % 0 mm
09:44 -15.1 °C -15 °C 34337.4 hPa Calm     98 % 0 mm
09:51 -15 °C -15 °C 34337.4 hPa Calm     98 % 0 mm
10:14 -15 °C -15 °C 34371.3 hPa Calm   2.9 km/h 98 % 0 mm
10:20 -15 °C -15 °C 34371.3 hPa Calm     98 % 0 mm
10:30 -14.9 °C -15 °C 34337.4 hPa Calm   5.1 km/h 98 % 0 mm
10:35 -14.9 °C -15 °C 34337.4 hPa Calm   6.4 km/h 98 % 0 mm
10:42 -14.9 °C -15 °C 34371.3 hPa Calm   4.2 km/h 98 % 0 mm
10:47 -14.9 °C -15 °C 34371.3 hPa Calm   4.2 km/h 98 % 0 mm
11:04 -14.8 °C -14.4 °C 34371.3 hPa Calm     98 % 0 mm
11:09 -14.8 °C -14.4 °C 34371.3 hPa Calm   6.4 km/h 98 % 0 mm
11:20 -14.8 °C -14.4 °C 34371.3 hPa Calm     98 % 0 mm
11:26 -14.8 °C -14.4 °C 34405.1 hPa Calm   2.3 km/h 98 % 0 mm
11:36 -14.8 °C -14.4 °C 34405.1 hPa Calm   8.9 km/h 98 % 0 mm
11:41 -14.8 °C -14.4 °C 34405.1 hPa Calm   8.9 km/h 98 % 0 mm
11:49 -14.8 °C -14.4 °C 34405.1 hPa Calm     98 % 0 mm
11:55 -14.7 °C -14.4 °C 34405.1 hPa Calm   3.4 km/h 98 % 0 mm
12:00 -14.7 °C -14.4 °C 34405.1 hPa Calm   3.4 km/h 98 % 0 mm
12:06 -14.7 °C -14.4 °C 34405.1 hPa Calm     98 % 0 mm
12:11 -14.7 °C -14.4 °C 34428.8 hPa Calm     98 % 0 mm
12:17 -14.7 °C -14.4 °C 34428.8 hPa Calm     98 % 0 mm
12:28 -14.7 °C -14.4 °C 34428.8 hPa Calm   2.9 km/h 98 % 0 mm
12:33 -14.7 °C -14.4 °C 34428.8 hPa Calm   8 km/h 98 % 0 mm
12:43 -14.7 °C -14.4 °C 34428.8 hPa Calm   2.3 km/h 98 % 0 mm
12:56 -14.7 °C -14.4 °C 34428.8 hPa Calm   2.3 km/h 98 % 0 mm
13:16 -14.7 °C -14.4 °C 34428.8 hPa Calm     98 % 0 mm
13:21 -14.7 °C -14.4 °C 34428.8 hPa Calm   6.4 km/h 98 % 0 mm
13:33 -14.7 °C -14.4 °C 34428.8 hPa Calm     98 % 0 mm
14:06 -14.7 °C -14.4 °C 34405.1 hPa West 3.4 km/h 10.3 km/h 98 % 0 mm
14:12 -14.8 °C -14.4 °C 34428.8 hPa Calm   16.9 km/h 98 % 0 mm
14:24 -14.7 °C -14.4 °C 34428.8 hPa Calm   9.3 km/h 98 % 0 mm
14:38 -14.7 °C -14.4 °C 34428.8 hPa Calm     98 % 0 mm
14:48 -14.8 °C -14.4 °C 34428.8 hPa Calm   9.3 km/h 98 % 0 mm
14:49 -14.8 °C -14.4 °C 34428.8 hPa Calm   9.3 km/h 98 % 0 mm
15:08 -14.8 °C -14.4 °C 34476.3 hPa Calm   6.9 km/h 98 % 0 mm
15:33 -14.8 °C -14.4 °C 34476.3 hPa Calm   7.6 km/h 98 % 0 mm
15:38 -14.8 °C -14.4 °C 34476.3 hPa Calm   2.3 km/h 98 % 0 mm
15:43 -14.8 °C -14.4 °C 34476.3 hPa Calm   2.3 km/h 98 % 0 mm
15:49 -14.8 °C -14.4 °C 34476.3 hPa Calm     98 % 0 mm
15:56 -14.9 °C -15 °C 34476.3 hPa Calm   2.9 km/h 98 % 0 mm
16:01 -14.9 °C -15 °C 34496.6 hPa Calm   2.9 km/h 98 % 0 mm
16:06 -14.9 °C -15 °C 34496.6 hPa Calm   5.6 km/h 98 % 0 mm
16:12 -14.9 °C -15 °C 34496.6 hPa Calm   5.6 km/h 98 % 0 mm
16:17 -14.9 °C -15 °C 34496.6 hPa Calm     98 % 0 mm
16:26 -14.9 °C -15 °C 34496.6 hPa Calm   2.3 km/h 98 % 0 mm
16:35 -14.9 °C -15 °C 34496.6 hPa Calm   2.3 km/h 98 % 0 mm
16:42 -15 °C -15 °C 34496.6 hPa Calm     98 % 0 mm
16:47 -14.9 °C -15 °C 34476.3 hPa Calm     98 % 0 mm
16:56 -15 °C -15 °C 34496.6 hPa Calm   2.9 km/h 98 % 0 mm
17:03 -15 °C -15 °C 34496.6 hPa West 2.3 km/h 6.9 km/h 98 % 0 mm
17:10 -15 °C -15 °C 34496.6 hPa Calm   9.3 km/h 98 % 0 mm
17:21 -15 °C -15 °C 34476.3 hPa Calm   4.2 km/h 98 % 0 mm
17:27 -15.1 °C -15 °C 34496.6 hPa Calm   4.2 km/h 98 % 0 mm
17:35 -15.1 °C -15 °C 34496.6 hPa Calm   5.1 km/h 98 % 0 mm
17:41 -15.1 °C -15 °C 34496.6 hPa Calm   2.9 km/h 98 % 0 mm
17:47 -15 °C -15 °C 34496.6 hPa Calm     98 % 0 mm
17:53 -15 °C -15 °C 34496.6 hPa Calm     98 % 0 mm
18:00 -15 °C -15 °C 34533.8 hPa Calm     98 % 0 mm
18:07 -14.9 °C -15 °C 34533.8 hPa Calm     98 % 0 mm
18:15 -14.9 °C -15 °C 34533.8 hPa Calm     98 % 0 mm
18:23 -14.9 °C -15 °C 34533.8 hPa Calm     98 % 0 mm
18:31 -14.9 °C -15 °C 34533.8 hPa Calm     98 % 0 mm
18:41 -15 °C -15 °C 34533.8 hPa Calm   5.6 km/h 98 % 0 mm
18:46 -15.1 °C -15 °C 34567.7 hPa Calm   8 km/h 98 % 0 mm
18:53 -15.1 °C -15 °C 34567.7 hPa Calm   8 km/h 98 % 0 mm
18:59 -15.1 °C -15 °C 34567.7 hPa Calm   9.8 km/h 98 % 0 mm
19:04 -15.1 °C -15 °C 34567.7 hPa Calm   10.3 km/h 98 % 0 mm
19:10 -15.1 °C -15 °C 34567.7 hPa Calm   10.3 km/h 98 % 0 mm
19:11 -15.1 °C -15 °C 34567.7 hPa Calm   10.3 km/h 98 % 0 mm
19:17 -15.1 °C -15 °C 34567.7 hPa North 5.1 km/h 6.4 km/h 98 % 0 mm
19:31 -15.2 °C -15 °C 34601.5 hPa Calm   7.6 km/h 98 % 0 mm
19:36 -15.2 °C -15 °C 34601.5 hPa Calm   9.3 km/h 98 % 0 mm
19:41 -15.2 °C -15 °C 34601.5 hPa Calm   9.3 km/h 98 % 0 mm
19:47 -15.2 °C -15 °C 34533.8 hPa Calm   6.4 km/h 98 % 0 mm
20:05 -15.2 °C -15 °C 34567.7 hPa Calm   6.9 km/h 98 % 0 mm
20:10 -15.2 °C -15 °C 34567.7 hPa Calm   10.3 km/h 98 % 0 mm
20:20 -15.2 °C -15 °C 34567.7 hPa Calm   3.4 km/h 98 % 0 mm
20:27 -15.2 °C -15 °C 34601.5 hPa NE 8.9 km/h 11.1 km/h 98 % 0 mm
20:34 -15.2 °C -15 °C 34601.5 hPa North 7.6 km/h 9.8 km/h 98 % 0 mm
20:42 -15.2 °C -15 °C 34601.5 hPa North 2.9 km/h 14.5 km/h 98 % 0 mm
20:47 -15.2 °C -15 °C 34601.5 hPa North 8 km/h 14.5 km/h 98 % 0 mm
20:57 -15.2 °C -15 °C 34601.5 hPa Calm   12.7 km/h 98 % 0 mm
21:02 -15.2 °C -15 °C 34601.5 hPa NNW 12.2 km/h 14.5 km/h 98 % 0 mm
21:08 -15.2 °C -15 °C 34601.5 hPa Calm   16.3 km/h 98 % 0 mm
21:18 -15.3 °C -15 °C 34635.4 hPa North 9.3 km/h 18.7 km/h 98 % 0 mm
21:52 -15.4 °C -15.6 °C 34635.4 hPa Calm   10.3 km/h 98 % 0 mm
21:57 -15.4 °C -15.6 °C 34635.4 hPa Calm   10.3 km/h 98 % 0 mm
22:02 -15.4 °C -15.6 °C 34635.4 hPa Calm   4.2 km/h 98 % 0 mm
22:14 -15.5 °C -15.6 °C 34635.4 hPa Calm   8.9 km/h 98 % 0 mm
22:26 -15.4 °C -15.6 °C 34635.4 hPa Calm   8.9 km/h 98 % 0 mm
22:35 -15.5 °C -15.6 °C 34635.4 hPa Calm   16.3 km/h 98 % 0 mm
22:48 -15.4 °C -15.6 °C 34635.4 hPa North 6.4 km/h 12.7 km/h 98 % 0 mm
22:57 -15.4 °C -15.6 °C 34635.4 hPa Calm   8.9 km/h 98 % 0 mm
23:07 -15.4 °C -15.6 °C 34635.4 hPa Calm   9.3 km/h 98 % 0 mm
23:14 -15.4 °C -15.6 °C 34601.5 hPa Calm   2.9 km/h 98 % 0 mm
23:22 -15.4 °C -15.6 °C 34601.5 hPa Calm   9.3 km/h 98 % 0 mm
23:28 -15.4 °C -15.6 °C 34635.4 hPa NE 10.3 km/h 10.3 km/h 98 % 0 mm
23:33 -15.4 °C -15.6 °C 34635.4 hPa Calm   12.7 km/h 98 % 0 mm
23:39 -15.4 °C -15.6 °C 34635.4 hPa Calm   12.7 km/h 98 % 7.62 mm
23:47 -15.4 °C -15.6 °C 34635.4 hPa Calm   14 km/h 98 % 7.62 mm
23:54 -15.3 °C -15.6 °C 34635.4 hPa Calm   14 km/h 98 % 7.62 mm
Le Gheer Warneton
Courtoisie de Weather Underground - 1.5 mb

Mise a jour : 25/02/2018 14:53:11
Généré par Cumulus 1.9.4 (1099)